Weather History for Eagle River, WI

Change the Weather History Date:

Wednesday, October 19, 2011

  Actual Average Record
Temperature  
Mean Temperature 38 °F -  
Max Temperature 44 °F 45 °F 73 °F (2000)
Min Temperature 33 °F 29 °F 18 °F (1992)
Degree Days  
Heating Degree Days 26    
Moisture  
Dew Point 35 °F    
Average Humidity 88    
Maximum Humidity 100    
Minimum Humidity 64    
Precipitation  
Precipitation 0.01 in - - ()
Sea Level Pressure  
Sea Level Pressure 29.98 in    
Wind  
Wind Speed 8 mph (NNE)    
Max Wind Speed 18 mph    
Max Gust Speed 25 mph    
Visibility 10 miles    
Events Rain    
Averages and records for this station are not official NWS values.
T = Trace of Precipitation, MM = Missing Value Source: NWS Daily Summary

Daily Weather History Graph

Daily Weather History Graph

Search for Another Location

Airport:

Trip Planner

Search our weather history database for the weather conditions in past years. The results will help you decide how hot, cold, wet, or windy it might be!

Date:

Astronomy

Oct. 19, 2011 Rise Set
Actual Time 7:18 AM CDT 6:04 PM CDT
Civil Twilight 6:48 AM CDT 6:34 PM CDT
Nautical Twilight 6:13 AM CDT 7:09 PM CDT
Astronomical Twilight 5:39 AM CDT 7:43 PM CDT
Moon 11:42 PM CDT (10/19) 1:58 PM CDT (10/19)
Length of Visible Light 11h 46m
Length of Day
10h 45m
Waning Gibbous, 54% of the Moon is Illuminated
Oct 19
Waning Gibbous
Oct 19
Last Quarter
Oct 26
New
Nov 2
First Quarter
Nov 10
Full

Hourly Weather History & Observations

Time (CDT) Temp. Windchill Dew Point Humidity Pressure Visibility Wind Dir Wind Speed Gust Speed Precip Events Conditions
12:35 AM 36.3 °F 32.5 °F 36.3 °F 100% 29.95 in 10.0 mi NNE 4.6 mph - 0.01 in   Overcast
12:55 AM 36.1 °F 32.3 °F 36.1 °F 100% 29.95 in 10.0 mi North 4.6 mph - 0.01 in   Overcast
1:15 AM 36.5 °F 33.9 °F 36.5 °F 100% 29.95 in 10.0 mi North 3.5 mph - N/A   Overcast
1:35 AM 36.5 °F 33.9 °F 36.5 °F 100% 29.96 in 10.0 mi NNE 3.5 mph - N/A   Overcast
2:15 AM 36.5 °F 33.9 °F 36.5 °F 100% 29.96 in 10.0 mi North 3.5 mph - N/A   Overcast
2:35 AM 36.1 °F 32.3 °F 36.1 °F 100% 29.96 in 10.0 mi North 4.6 mph - N/A   Overcast
3:15 AM 36.0 °F 30.3 °F 36.0 °F 100% 29.97 in 10.0 mi North 6.9 mph - N/A   Overcast
3:35 AM 36.0 °F 31.1 °F 36.0 °F 100% 29.96 in 10.0 mi North 5.8 mph - N/A   Overcast
3:55 AM 35.8 °F 30.9 °F 35.8 °F 100% 29.97 in 10.0 mi North 5.8 mph - N/A   Overcast
4:15 AM 35.6 °F 31.7 °F 35.6 °F 100% 29.97 in 10.0 mi NNE 4.6 mph - N/A   Overcast
4:35 AM 35.2 °F 28.8 °F 35.2 °F 100% 29.97 in 10.0 mi NNE 8.1 mph - N/A   Mostly Cloudy
4:55 AM 34.9 °F 30.8 °F 34.9 °F 100% 29.97 in 10.0 mi North 4.6 mph - N/A   Mostly Cloudy
5:15 AM 35.1 °F 30.1 °F 35.1 °F 100% 29.98 in 10.0 mi North 5.8 mph - N/A   Overcast
5:35 AM 34.7 °F 28.1 °F 34.7 °F 100% 29.98 in 10.0 mi North 8.1 mph - N/A   Overcast
5:55 AM 34.2 °F 27.5 °F 34.2 °F 100% 29.99 in 10.0 mi North 8.1 mph - N/A   Overcast
6:15 AM 34.0 °F 28.8 °F 34.0 °F 100% 29.99 in 10.0 mi North 5.8 mph - N/A   Scattered Clouds
6:35 AM 33.4 °F 29.1 °F 33.4 °F 100% 29.99 in 10.0 mi North 4.6 mph - N/A   Clear
6:55 AM 33.1 °F 28.7 °F 33.1 °F 100% 29.99 in 10.0 mi NNE 4.6 mph - N/A   Clear
7:35 AM 33.4 °F 27.3 °F 33.4 °F 100% 30.00 in 10.0 mi North 6.9 mph - N/A   Overcast
7:55 AM 34.2 °F 26.2 °F 34.2 °F 100% 30.00 in 10.0 mi North 10.4 mph - N/A   Mostly Cloudy
8:15 AM 34.3 °F 26.5 °F 34.3 °F 100% 30.00 in 10.0 mi North 10.4 mph - N/A   Overcast
8:35 AM 34.9 °F 27.1 °F 34.9 °F 100% 30.00 in 10.0 mi NNE 10.4 mph - N/A   Overcast
9:15 AM 37.9 °F 30.5 °F 37.8 °F 99% 30.00 in 10.0 mi North 11.5 mph - N/A   Overcast
9:35 AM 38.1 °F 31.2 °F 37.8 °F 99% 30.01 in 10.0 mi NNE 10.4 mph - N/A   Overcast
9:55 AM 38.3 °F 31.4 °F 37.4 °F 97% 30.01 in 10.0 mi NNE 10.4 mph 20.7 mph N/A   Overcast
10:15 AM 38.8 °F 30.4 °F 37.0 °F 93% 30.01 in 10.0 mi NNE 15.0 mph 21.9 mph N/A   Overcast
10:35 AM 39.7 °F 31.2 °F 35.4 °F 85% 30.01 in 10.0 mi NNE 16.1 mph 20.7 mph N/A   Overcast
10:55 AM 40.3 °F 33.0 °F 34.2 °F 79% 30.01 in 10.0 mi North 12.7 mph 20.7 mph N/A   Overcast
11:15 AM 41.4 °F 33.6 °F 34.3 °F 76% 30.01 in 10.0 mi North 15.0 mph 21.9 mph N/A   Overcast
11:55 AM 42.3 °F 35.9 °F 34.0 °F 72% 30.01 in 10.0 mi NNE 11.5 mph 17.3 mph N/A   Overcast
12:15 PM 42.3 °F 35.5 °F 34.7 °F 75% 30.02 in 7.0 mi NNE 12.7 mph 20.7 mph N/A Rain Light Rain
12:35 PM 41.9 °F 34.3 °F 36.0 °F 79% 30.01 in 10.0 mi NE 15.0 mph 20.7 mph N/A   Overcast
12:55 PM 42.8 °F 35.4 °F 35.6 °F 76% 30.00 in 10.0 mi NNE 15.0 mph 19.6 mph N/A   Mostly Cloudy
1:15 PM 43.9 °F 37.5 °F 34.9 °F 71% 29.99 in 10.0 mi NNE 12.7 mph 18.4 mph N/A   Mostly Cloudy
1:35 PM 43.5 °F 36.1 °F 34.2 °F 70% 29.98 in 10.0 mi North 16.1 mph 21.9 mph N/A Rain Light Rain
1:55 PM 41.9 °F 34.3 °F 33.8 °F 73% 29.97 in 10.0 mi North 15.0 mph 24.2 mph N/A   Overcast
2:15 PM 44.6 °F 38.4 °F 33.3 °F 64% 29.96 in 10.0 mi NNE 12.7 mph 19.6 mph N/A   Overcast
3:15 PM 43.9 °F 36.5 °F 33.4 °F 67% 29.96 in 10.0 mi North 16.1 mph 25.3 mph N/A   Overcast
3:35 PM 42.4 °F 34.4 °F 34.5 °F 74% 29.96 in 10.0 mi NNE 17.3 mph 21.9 mph N/A Rain Light Rain
3:55 PM 43.0 °F 36.4 °F 34.7 °F 73% 29.96 in 10.0 mi North 12.7 mph 23.0 mph N/A   Overcast
4:15 PM 43.7 °F 37.7 °F 34.5 °F 70% 29.96 in 10.0 mi North 11.5 mph 23.0 mph N/A   Overcast
4:35 PM 43.3 °F 35.5 °F 34.5 °F 71% 29.96 in 10.0 mi NNE 17.3 mph 21.9 mph N/A   Overcast
4:55 PM 42.3 °F 36.3 °F 34.5 °F 74% 29.96 in 10.0 mi NNE 10.4 mph 13.8 mph N/A   Overcast
5:15 PM 41.4 °F 35.2 °F 35.2 °F 79% 29.96 in 10.0 mi NNE 10.4 mph - N/A   Overcast
5:35 PM 40.8 °F 34.5 °F 35.2 °F 80% 29.96 in 10.0 mi NNE 10.4 mph 19.6 mph N/A Rain Light Rain
5:55 PM 39.9 °F 32.5 °F 35.8 °F 85% 29.96 in 7.0 mi NE 12.7 mph 23.0 mph N/A Rain Light Rain
6:15 PM 39.2 °F 31.2 °F 35.4 °F 86% 29.96 in 10.0 mi NE 13.8 mph 23.0 mph N/A   Overcast
6:35 PM 39.2 °F 31.2 °F 34.5 °F 83% 29.97 in 10.0 mi NE 13.8 mph 24.2 mph N/A   Overcast
6:55 PM 38.8 °F 32.1 °F 33.4 °F 81% 29.97 in 10.0 mi NNE 10.4 mph 18.4 mph N/A   Overcast
7:15 PM 38.5 °F 28.9 °F 33.3 °F 81% 29.97 in 10.0 mi NNE 18.4 mph 23.0 mph N/A   Overcast
7:35 PM 38.3 °F 29.3 °F 32.9 °F 81% 29.97 in 10.0 mi NNE 16.1 mph 23.0 mph N/A   Mostly Cloudy
7:55 PM 37.6 °F 29.6 °F 32.7 °F 83% 29.97 in 10.0 mi NNE 12.7 mph 20.7 mph N/A   Mostly Cloudy
8:15 PM 37.0 °F 30.4 °F 32.5 °F 84% 29.97 in 10.0 mi North 9.2 mph - N/A   Scattered Clouds
8:35 PM 36.7 °F 30.5 °F 32.4 °F 84% 29.96 in 10.0 mi North 8.1 mph - N/A   Scattered Clouds
8:55 PM 36.7 °F 27.6 °F 32.7 °F 86% 29.95 in 10.0 mi NNE 15.0 mph 18.4 mph N/A   Light Drizzle
9:15 PM 36.9 °F 29.1 °F 33.3 °F 87% 29.94 in 10.0 mi North 11.5 mph - N/A   Overcast
9:35 PM 36.9 °F 29.1 °F 32.2 °F 83% 29.94 in 10.0 mi NNE 11.5 mph 17.3 mph N/A   Mostly Cloudy
9:55 PM 37.2 °F 30.0 °F 32.0 °F 81% 29.93 in 10.0 mi North 10.4 mph - N/A   Overcast
10:15 PM 37.4 °F 29.8 °F 32.0 °F 81% 29.92 in 10.0 mi North 11.5 mph - N/A   Light Drizzle
10:35 PM 37.4 °F 29.8 °F 32.5 °F 83% 29.91 in 10.0 mi North 11.5 mph 18.4 mph N/A   Light Drizzle
10:55 PM 37.4 °F 30.3 °F 33.1 °F 84% 29.90 in 10.0 mi NNE 10.4 mph 16.1 mph N/A Snow Light Snow
11:15 PM 37.4 °F 29.3 °F 34.0 °F 87% 29.89 in 10.0 mi NNE 12.7 mph 19.6 mph N/A Rain Rain
11:35 PM 37.2 °F 30.0 °F 36.1 °F 96% 29.89 in 10.0 mi NNE 10.4 mph 21.9 mph N/A   Overcast
11:55 PM 37.4 °F 29.3 °F 36.7 °F 97% 29.88 in 10.0 mi NNE 12.7 mph 18.4 mph N/A Rain Light Rain